Regional Weather Roundup
Issued by NWS Charleston, SC

Home | Current Version | Previous Version | Text Only | Print | Product List | Glossary On
Versions: 1 2 3 4 5 6 7 8 9 10 11 12 13 14 15 16 17 18 19 20 21 22 23 24 25 26 27 28 29 30 31 32 33 34 35 36 37 38 39 40 41 42 43 44 45 46 47 48 49 50
000
ASUS42 KCHS 301728
RWRCHS

REGIONAL WEATHER ROUNDUP
NATIONAL WEATHER SERVICE CHARLESTON SC
100 PM EDT MON MAY 30 2016

NOTE: "FAIR" INDICATES FEW OR NO CLOUDS BELOW 12,000 FEET WITH NO
SIGNIFICANT WEATHER AND/OR OBSTRUCTIONS TO VISIBILITY.

NOT ALL STATIONS ARE QUALITY CONTROLLED. USE DATA WITH CAUTION...
ESPECIALLY DEWPOINT OBSERVATIONS.

SCZ027-030-031-034>040-042>050-301800-
...SOUTHEAST SOUTH CAROLINA...

CITY           SKY/WX    TMP DP  RH WIND       PRES   REMARKS
N CHARLESTON   CLOUDY    75  67  76 NW13      29.91F
WATERFRONT PRK   N/A     75  69  81 NW6       29.90F
MOUNT PLEASANT PTSUNNY   75  70  83 W7        29.91F
JOHNS ISLAND   PTSUNNY   79  70  73 NW13G20   29.91F
PINOPOLIS      NOT AVBL
MONCKS CORNER  CLOUDY    68  66  94 W3        29.90F FOG
SUMMERVILLE    CLOUDY    72  72 100 NW8       29.93F
BEAUFORT MCAS  MOSUNNY   81  69  67 NW10G20   29.93F
BEAUFORT ARPT  FAIR      81  68  65 NW13G20   29.92F
HILTON HEAD IS MOSUNNY   81  68  65 NW7       29.95F
WALTERBORO     LGT RAIN  73  73 100 NW8G16    29.94F
ALLENDALE      PTSUNNY   81  70  69 NW8       29.94F

...SOUTHERN MIDLANDS AND PEE DEE...

CITY           SKY/WX    TMP DP  RH WIND       PRES   REMARKS
GEORGETOWN     CLOUDY    73  70  88 SW5       29.90F FOG
KINGSTREE      CLOUDY    75  68  78 NE6       29.89F
ORANGEBURG     LGT RAIN  73  68  84 N8G18     29.95F
BARNWELL       PTSUNNY   81  73  78 NW8       29.96F
AIKEN          PTSUNNY   79  66  65 NW10      30.00F
MANNING        CLOUDY    72  70  94 NW5       29.91F
COLUMBIA       CLOUDY    80  67  64 NW8       29.95F
SUMTER         HVY RAIN  72  70  94 N9        29.92S FOG
FLORENCE       CLOUDY    82  70  66 E7        29.91F
MYRTLE BEACH   PTSUNNY   79  66  65 SE12      29.93F
N MYRTLE BEACH PTSUNNY   79  71  76 SE9       29.92F

$$

GAZ063-065-086>088-099>101-113>116-118-119-134>141-150-301800-
...SOUTHEAST GEORGIA...

CITY           SKY/WX    TMP DP  RH WIND       PRES   REMARKS
SAVANNAH ARPT  PTSUNNY   84  68  58 NW12      29.95F
HUNTER AAF     MOSUNNY   84  72  67 W10       29.92F HX  90
FORT STEWART   MOSUNNY   86  64  47 NW17G23   29.94F
STATESBORO     MOSUNNY   84  71  66 N13       29.96F
SYLVANIA       PTSUNNY   84  71  65 NW13      29.96F
CLAXTON        FAIR      87  67  50 NW12      29.96F

...CSRA...CENTRAL AND FAR SOUTHEAST GEORGIA...

CITY           SKY/WX    TMP DP  RH WIND       PRES   REMARKS
THOMSON        MOSUNNY   86  67  53 N9        30.01F
AUGUSTA-BUSH   PTSUNNY   82  67  60 N13       29.96F
AUGUSTA-DANIEL MOSUNNY   84  65  52 NW13G18   29.98F
SWAINSBORO     FAIR      86  61  42 N9        29.98F
VIDALIA        MOSUNNY   86  64  48 N5        29.97F
EASTMAN        FAIR      88  64  44 NE6       30.00F
HAZLEHURST     FAIR      90  62  38 CALM      29.97F HX  90
ALMA           SUNNY     88  64  44 N7        29.98F
WAYCROSS       MOSUNNY   89  65  46 CALM      29.97F HX  91
JESUP          FAIR      82  61  47 N13G24    29.96F
BAXLEY         FAIR      90  63  40 N7        29.96F HX  90
BRUNSWICK      MOSUNNY   91  66  43 W9G16     29.95F HX  94
SAINT SIMONS   PTSUNNY   88  65  46 W8        29.96F HX  90

$$

SCZ027-028-034-036>038-045-046-048>050-GAZ119-141-301800-
...LAKE AND SUPPLEMENTAL COASTAL OBSERVATIONS...

STATION/POSITION TIME  TEMP    WIND        PRES    WAVE   SWELL
                       AIR SEA DIR/SP/G            HT/PER HT/PER/DIR
                 (UTC) (F)     (DEG/KT/KT) (MB)    (FT/S) (FT/S/D)
WINYAH BAY       1645   76     200/  8     1012.0S
LAKE MURRAY      1600   79      10/  2/  6 1014.6S
ACE BASIN NERRS  1600   77     320/  4     1014.0S
FORT PULASKI     1700   79 75  290/ 12/ 14 1014.1F
SAPELO ISLAND    1700   84     290/ 13     1014.0F

$$

ANZ835-935-AMZ111-154-330-350-352-354-370-450-454-472-301800-
...C-MAN AND BUOY OBSERVATIONS...

STATION/POSITION TIME  TEMP    WIND        PRES    WAVE   SWELL
                       AIR SEA DIR/SP/G            HT/PER HT/PER/DIR
                 (UTC) (F)     (DEG/KT/KT) (MB)    (FT/S) (FT/S/D)
BUOY 41004       1650   74 77  250/ 10/ 12 1012.6F   4/ 9   3/ 9
BUOY 41008       1650   75 76  240/  8/ 10 1014.4F   2/ 8   2/ 70/ 8
FOLLY BEACH CMAN 1700   76     310/  8/ 12 1012.8F
CAPERS NEARSHORE 1708   74 76  300/  8/ 12 1012.5F
FRIPP NEARSHORE  1708   77 76  320/ 10/ 16 1012.7F


STATION/POSITION TIME  TEMP    WIND        PRES    WAVE   SWELL
                       AIR SEA DIR/SP/G            HT/PER HT/PER/DIR
                 (UTC) (F)     (DEG/KT/KT) (MB)    (FT/S) (FT/S/D)
5E ST. MARYS GA  1701      80                N/A     2/ 8
FRYING PAN BUOY  1700   74 78  150/ 14/ 19 1013.3F
BUOY 41025       1650   73 81  270/ 14/ 17 1016.2F   5/ 5   3/160/ 8
CAPE LOOKOUT NC  1700   73      40/  7/  8 1014.9F
BUOY 41002       1650   74 76  150/ 10/ 12 1015.9F   5/ 8   5/110/ 8
BUOY 41010       1620   79 80  200/ 10/ 12 1016.3F
ST AUGUSTINE FL  1700   87 81  300/  3/  5 1015.7F


$$




USA.gov is the U.S. government's official web portal to all federal, state and local government web resources and services.